Location: Sundre
(51.7972°N, 114.6405°W)
Time: 09:37:02
(UTC-07:00)

TIGRISAT - Pass Details

Date: 26 January 2020
Orbit: 604 x 690 km, 97.7° (Epoch: 17 February)

Event Time Altitude Azimuth Distance (km) Brightness Sun altitude
Rises 06:36:48 0° 114° (ESE) 2,911 ? -16.8°
Reaches altitude 10° 06:39:50 10° 91° (E) 1,993 ? -16.3°
Maximum altitude 06:42:15 15° 57° (ENE) 1,682 ? -16.0°
Drops below altitude 10° 06:44:40 10° 22° (NNE) 1,980 ? -15.6°
Sets 06:47:39 0° 359° (N) 2,881 ? -15.1°
